Back to catalog

STARLINK-32609

AliveCommunicationsVLEO
NORAD 61929·PAYLOAD·🇺🇸 United States

Launched Nov 11, 2024 from Cape Canaveral Space Force Station

Loading…

Next Passes (next 24 hours)

TLE

FreshSource: CelesTrak SupGP

Epoch: Sep 14, 2026, 21:15 UTC

1 61929C 24207T   26257.88590278 -.00006891  00000+0 -24959-3 0  2575
2 61929  43.0003 293.1623 0001559 268.3490 259.5619 15.27582731    16

Track STARLINK-32609 in real time with AllMySat

Download on the App Store